Miscellaneous Local Product
Issued by NWS Hastings, NE

Home | Current Version | Previous Version | Graphics & Text | Print | Product List | Glossary On
Versions: 1 2 3 4 5 6 7 8 9 10 11 12 13 14 15 16 17 18 19 20 21 22 23 24 25 26 27 28 29 30 31 32 33 34 35 36 37 38 39 40 41 42 43 44 45 46 47 48 49 50
804
AXUS43 KGID 100702
MISGRI

GID CWA HOURLY WEATHER ROUNDUP
NATIONAL WEATHER SERVICE HASTINGS NE
100 AM CST SUN DEC 10 2017

NOTE: "FAIR" INDICATES FEW OR NO CLOUDS BELOW 12,000 FEET WITH NO
SIGNIFICANT WEATHER AND/OR OBSTRUCTIONS TO VISIBILITY.

...SOUTH CENTRAL NEBRASKA...

CITY           SKY/WX    TMP DP  RH WIND       PRES   REMARKS
GRAND ISLAND   CLEAR     37  17  44 W13       30.10S WCI  29
KEARNEY        CLEAR     40  14  34 W12       30.13F WCI  33
HASTINGS       CLEAR     36  15  42 W13       30.11S WCI  27
ORD            CLEAR     43  17  35 NW17      30.07F
YORK           CLEAR     37  19  48 NW17      30.06S WCI  28
AURORA         CLEAR     37  18  44 W14       30.08S WCI  29
LEXINGTON      CLEAR     33  16  49 W9        30.16F WCI  26
HOLDREGE       CLEAR     38  16  40 W10       30.15F WCI  31
HEBRON         CLEAR     34  20  56 CALM      30.10F

...NEBRASKA PANHANDLE...

CITY           SKY/WX    TMP DP  RH WIND       PRES   REMARKS
CHADRON        CLEAR     40  12  32 W17       30.27S WCI  31
ALLIANCE       CLEAR     33  12  41 W13       30.27S WCI  24
SCOTTSBLUFF    CLOUDY    31  11  43 W12       30.35R WCI  22
SIDNEY         CLEAR     34   9  35 NW14      30.33F WCI  25

...WESTERN AND NORTH CENTRAL NEBRASKA...

CITY           SKY/WX    TMP DP  RH WIND       PRES   REMARKS
VALENTINE      CLEAR     41  18  39 W17       30.12F
AINSWORTH      CLEAR     43  18  36 NW20      30.10S
ONEILL         CLEAR     41  21  44 W9        30.05S
BROKEN BOW     CLEAR     43  15  32 NW20      30.11F
IMPERIAL       CLEAR     41  11  29 W14       30.27S
NORTH PLATTE   CLEAR     26  15  63 NW9       30.21S WCI  17
MCCOOK         CLEAR     40  14  34 NW17      30.22F WCI  31

...EASTERN NEBRASKA...

CITY           SKY/WX    TMP DP  RH WIND       PRES   REMARKS
NORFOLK        NOT AVBL
SO SIOUX CITY  CLEAR     18  14  84 CALM      29.95F
TEKAMAH        CLOUDY    30  20  66 W12       29.97F WCI  20
COLUMBUS       CLOUDY    32  20  61 W8        30.03F WCI  25
ALBION         CLEAR     42  20  41 NW14      30.03F
OMAHA EPPLEY   CLOUDY    26  19  74 SE9       30.01F WCI  17
OFFUTT AFB     CLOUDY    21  16  80 CALM      30.01F
MILLARD        CLOUDY    33  23  66 W6        30.03S WCI  27
LINCOLN        CLEAR     35  20  54 CALM      30.06F
NEBRASKA CITY  CLOUDY    31  23  72 SW13      30.03F WCI  21
BEATRICE       CLOUDY    33  22  65 W9        30.07S WCI  25
FALLS CITY     CLEAR     27  19  72 E3        30.07F

...NORTHERN KANSAS...

CITY           SKY/WX    TMP DP  RH WIND       PRES   REMARKS
GOODLAND       CLEAR     34   7  32 W14       30.31S WCI  25
HILL CITY      CLEAR     42  14  32 W13       30.23S
NORTON         SUNNY     39   7  26 W18       30.20S WCI  30
PHILLIPSBURG   CLEAR     37  12  35 W9        30.19F WCI  31
SMITH CENTER   CLEAR     27  16  63 W8        30.18S WCI  18
HAYS           CLEAR     34  13  41 W12       30.22F WCI  25
RUSSELL        CLEAR     31  17  56 W9        30.18F WCI  23
CONCORDIA      CLOUDY    37  19  48 W14       30.12F WCI  28
SALINA         CLOUDY    36  20  52 SW12      30.16F WCI  28
TOPEKA         CLOUDY    27  19  72 S3        30.13F



USA.gov is the U.S. government's official web portal to all federal, state and local government web resources and services.